Temp
29 28 27 28 28 29 29 29 29 32 34 34 34 33 36 35 33 33 32 31 31 31 31 31 30 28 28 28 28 27 27 27 26 25 24 24 24 24 24 24 24 23 23 23
29 27 30 31 31 31 30 30 30 32 34 32 33 33 33 33 34 33 32 32 32 32 31 30 29 28 27 27 28 27 27 27 26 25 25 24 24 24 24 24 24 24 23 23
29 31 32 31 31 31 30 29 31 31 33 33 33 31 31 33 34 34 32 33 33 32 31 30 29 28 27 26 26 27 27 27 26 26 25 24 23 23 23 24 24 24 24 23
29 32 32 32 32 31 28 32 32 32 31 29 31 28 29 31 31 32 32 32 32 32 32 30 29 28 27 27 27 27 26 27 26 26 25 24 24 23 24 25 24 24 23 23
30 31 30 31 32 33 31 33 32 33 31 29 30 27 27 30 32 32 33 32 32 32 32 30 30 29 27 27 26 26 26 26 26 25 25 24 24 24 24 24 24 23 23 23
30 32 32 32 33 33 34 32 30 27 26 27 28 28 31 29 32 32 33 31 32 32 32 32 30 28 27 26 26 26 25 25 26 25 24 24 24 23 23 24 24 24 23 23
30 30 32 33 31 32 33 27 26 27 26 25 28 28 30 31 30 32 32 31 32 33 33 29 27 27 25 25 24 24 25 25 24 24 24 24 24 23 23 24 24 24 23 23
26 28 30 33 30 31 30 28 25 26 26 27 28 28 31 32 34 34 31 32 31 32 32 28 27 26 26 24 23 23 24 23 24 24 24 24 23 23 23 23 23 24 23 23
27 28 31 32 33 32 31 30 27 26 26 25 26 28 30 31 32 31 32 31 30 29 29 28 27 26 24 22 22 23 24 24 24 24 24 24 24 21 23 23 23 23 23 22
30 27 31 33 33 34 31 31 30 23 28 27 26 28 28 31 31 30 30 29 27 27 27 25 24 23 22 21 22 23 24 25 24 24 24 24 23 23 24 23 22 22 22 22
29 26 29 29 31 30 30 29 29 26 24 25 25 27 29 27 29 28 28 27 27 27 25 24 23 23 22 22 23 24 24 24 24 24 23 23 23 23 23 23 22 22 22 21
27 26 25 30 31 32 32 32 29 29 27 24 25 27 27 27 27 29 28 27 27 26 25 25 24 24 23 22 23 24 24 23 24 23 23 24 23 23 23 23 22 22 21 21
27 25 24 27 29 32 31 31 31 26 23 25 25 26 27 25 25 28 28 27 25 25 25 24 24 24 23 22 23 24 24 24 23 23 23 23 23 23 23 23 22 22 21 21
25 23 24 24 26 28 30 33 31 27 28 27 25 27 27 25 24 23 24 24 25 25 24 23 22 24 23 23 23 24 24 24 23 23 23 23 23 23 23 23 22 22 21 21
23 23 23 24 27 28 32 32 31 30 29 29 28 27 25 22 22 22 23 25 26 26 24 24 24 23 23 23 24 24 24 24 24 24 23 23 23 23 23 23 22 22 22 21
23 23 22 26 26 28 31 28 30 24 23 25 27 26 23 23 22 23 24 25 25 26 26 26 25 24 23 24 24 24 24 24 24 24 23 23 23 23 23 23 22 22 21 21
23 21 22 25 24 27 26 25 24 22 21 20 25 21 22 23 24 23 22 24 24 23 23 24 24 23 24 24 25 25 24 24 23 23 23 23 23 23 23 23 23 22 22 22
19 19 18 23 23 25 24 24 23 21 21 21 21 20 19 20 19 20 20 21 22 22 22 21 21 21 23 25 24 25 25 24 24 22 21 22 22 21 20 19 19 20 22 22
20 18 19 22 22 24 22 23 22 22 21 20 20 20 19 20 21 20 20 20 20 20 20 20 20 20 22 23 25 25 23 23 22 20 21 21 20 20 20 20 20 20 21 20
21 19 22 20 23 22 19 22 23 22 22 20 20 20 19 19 17 19 19 20 19 19 20 21 21 21 21 21 22 22 20 20 19 19 20 20 21 21 19 21 23 24 20 21
17 17 20 20 22 19 19 19 22 23 21 18 19 18 19 19 18 17 19 20 20 20 20 21 20 19 19 20 21 19 19 19 20 20 20 21 20 20 20 20 21 22 21 19
17 17 17 17 20 20 20 21 21 18 17 18 18 17 17 17 17 18 20 20 19 19 19 19 18 18 18 18 19 18 18 18 19 19 19 19 19 18 17 16 16 16 18 17
17 16 16 17 17 16 16 18 17 16 17 18 18 18 18 17 18 19 19 18 18 18 17 18 17 17 17 17 17 17 17 18 18 18 18 17 18 18 20 16 15 16 15 17
17 16 15 17 16 16 16 16 16 16 16 19 20 20 19 19 19 19 18 18 17 17 16 17 16 16 16 16 16 16 16 17 17 17 17 18 18 18 18 18 18 17 18 17
17 17 16 16 15 16 16 17 17 17 16 17 18 19 20 19 18 18 17 16 16 16 16 16 15 15 15 15 16 16 16 16 16 15 15 15 16 17 18 18 18 19 19 18
15 16 15 16 15 16 15 15 18 18 19 19 20 19 18 18 18 17 16 16 17 16 17 16 15 15 15 15 15 15 16 16 15 15 15 14 14 15 16 17 16 15 18 17
Height
742 763 774 761 760 760 767 773 776 752 731 744 741 733 712 703 710 712 715 718 716 713 712 721 729 735 741 746 751 755 760 764 769 773 776 778 779 782 784 784 785 787 789 790
754 766 747 740 744 752 759 769 767 744 729 741 735 734 719 709 705 704 707 709 707 707 713 718 725 730 735 739 744 749 754 759 764 767 771 774 776 779 780 781 781 782 784 785
756 738 731 743 746 753 755 767 760 759 731 728 731 746 730 707 699 693 695 690 692 697 704 714 720 724 729 734 739 743 748 753 758 763 768 771 774 776 777 776 777 777 780 782
741 724 736 740 747 745 771 734 740 745 752 774 735 788 746 721 714 701 690 689 690 691 697 706 712 716 721 726 735 741 745 749 754 759 763 766 769 771 772 773 773 774 776 779
737 732 737 743 735 731 748 725 733 734 746 757 753 776 755 725 722 707 689 683 681 682 689 700 702 707 717 724 731 738 742 748 753 756 759 763 767 768 770 771 772 773 775 777
723 709 718 724 715 719 717 731 738 749 762 785 762 768 744 741 719 705 687 680 677 682 687 689 697 709 716 725 730 736 741 746 750 753 757 760 765 768 767 768 768 770 772 775
728 725 710 707 727 715 721 755 789 787 791 793 752 765 739 710 707 695 689 682 676 673 676 692 698 706 715 721 728 733 740 745 748 751 755 758 759 761 765 765 767 767 769 771
756 756 722 701 721 729 732 747 787 799 798 780 751 769 726 694 672 674 677 675 678 678 680 690 696 703 711 718 725 732 739 744 749 755 757 757 760 763 769 763 766 767 768 770
747 740 704 700 697 710 724 743 731 764 765 781 766 739 707 687 677 674 677 678 683 683 683 690 696 702 710 717 724 730 739 745 749 754 757 761 760 762 767 762 766 766 767 769
719 748 709 696 691 690 712 707 744 767 775 788 772 756 746 709 693 683 686 685 684 681 687 694 699 705 711 718 723 733 741 746 751 751 755 756 759 762 765 765 768 766 765 768
709 730 727 711 711 717 715 728 727 743 762 780 789 762 710 707 693 691 689 684 684 683 689 694 699 707 714 722 728 735 740 745 748 751 753 756 758 761 764 766 766 766 766 769
712 725 746 716 691 686 692 705 716 743 758 759 762 756 699 701 695 686 694 694 693 696 697 699 702 707 717 724 731 737 741 744 747 750 752 752 755 757 760 762 764 765 767 768
718 736 753 729 711 691 700 697 700 719 742 750 764 754 700 701 697 692 697 699 703 708 711 714 708 714 721 726 732 737 739 741 745 749 750 750 751 752 753 756 760 762 765 768
717 738 744 763 738 714 704 685 692 714 735 735 740 726 711 710 708 708 704 699 700 706 714 723 712 715 722 725 730 732 736 739 743 746 747 747 750 753 756 759 760 761 764 767
729 747 738 727 714 700 685 685 690 707 712 727 717 718 713 714 708 708 700 698 695 697 701 719 715 716 721 723 726 730 735 738 740 742 747 751 755 757 760 762 764 764 764 764
728 746 738 722 710 697 690 698 692 725 729 720 713 716 706 704 706 698 693 693 696 700 700 706 709 712 715 719 722 727 731 734 738 743 747 751 753 755 757 760 763 766 766 766
735 744 741 735 722 708 727 724 721 736 739 737 731 738 716 718 714 712 713 705 706 711 713 712 711 711 713 716 720 726 729 735 737 739 742 746 749 751 755 759 762 763 766 768
738 746 752 741 729 748 736 723 724 736 739 731 732 730 733 732 737 738 715 717 712 711 712 715 715 717 718 719 725 726 729 732 733 737 742 744 747 752 755 759 766 766 765 764
715 737 748 747 749 740 741 735 739 739 742 734 730 729 734 731 720 739 725 719 719 711 719 725 719 721 721 721 721 727 731 731 734 737 738 738 739 744 746 745 748 764 763 761
719 723 731 747 744 761 758 732 723 727 741 726 726 731 720 727 756 747 732 728 709 719 720 723 719 727 732 729 725 728 729 731 735 733 733 735 736 737 740 736 729 734 742 741
750 748 747 749 743 757 743 733 723 745 742 724 725 727 720 724 735 747 726 729 732 730 732 731 731 735 737 733 732 733 734 734 734 734 730 731 734 736 736 735 731 724 723 724
766 767 767 762 756 761 734 722 741 745 731 726 725 723 721 723 735 737 724 741 742 743 736 731 735 739 740 739 736 736 735 737 736 733 730 730 730 730 729 727 724 721 714 718
766 764 768 763 764 751 749 743 743 741 746 740 739 730 724 727 734 734 721 733 735 742 743 745 746 745 743 744 741 738 736 738 736 730 728 730 728 725 723 718 715 709 697 711
753 755 764 759 758 754 750 743 736 732 747 740 733 734 735 734 728 727 722 734 740 748 754 754 750 749 748 747 745 742 740 737 735 730 728 725 724 719 717 712 706 699 693 709
751 753 754 760 757 754 750 741 739 735 737 736 731 730 727 728 733 734 741 748 754 758 760 757 755 754 753 751 748 744 741 738 735 732 729 724 720 715 710 708 705 701 700 704
752 752 759 758 749 746 745 740 734 734 732 733 733 736 739 738 741 742 746 750 754 757 756 757 758 758 758 757 752 751 747 743 740 736 732 727 720 713 706 701 698 698 702 696
Wind_Speed
7 1 7 12 10 9 8 9 13 18 22 4 13 9 7 11 14 17 20 20 21 23 21 28 27 32 35 40 42 41 39 35 30 26 24 22 24 22 20 18 16 17 17 18
1 10 16 13 9 11 12 13 18 19 18 7 8 8 9 8 9 12 20 20 23 19 14 17 26 30 36 40 44 41 40 36 33 30 29 25 25 19 18 12 15 16 19 18
13 20 12 10 13 13 13 8 15 14 19 3 1 8 7 8 3 6 10 22 23 22 19 16 19 28 34 37 39 41 41 37 36 31 29 22 17 18 16 17 17 17 17 19
14 16 11 12 14 11 10 17 16 16 6 6 4 5 8 8 10 7 11 12 18 21 18 17 19 24 35 37 39 39 38 37 35 31 30 27 20 17 19 18 19 18 18 17
16 14 9 10 18 12 12 16 17 17 5 3 7 3 8 4 8 6 7 13 19 22 20 19 21 30 31 34 36 36 37 35 33 31 29 23 18 17 15 15 19 21 20 17
12 10 14 19 20 12 13 6 1 4 4 3 5 4 12 5 6 5 5 10 18 21 20 22 18 23 27 28 31 34 33 35 31 29 26 19 16 14 16 13 20 24 24 18
5 6 11 12 8 11 3 5 5 3 3 7 4 1 14 11 7 8 10 12 19 23 23 12 16 17 25 29 26 30 33 32 29 27 20 17 18 15 15 12 13 16 20 20
6 11 8 13 10 11 8 8 6 7 4 7 6 6 15 11 19 16 8 11 9 13 14 14 17 18 26 28 29 30 31 24 20 18 15 14 11 6 17 14 14 17 19 19
5 13 6 11 16 8 10 4 9 6 2 3 3 9 10 8 1 11 9 8 9 10 12 16 16 21 25 26 29 34 29 21 18 15 13 11 5 7 22 9 13 15 13 14
1 4 11 19 9 17 8 4 1 2 3 7 5 5 6 7 4 8 8 10 6 11 14 12 13 17 21 24 29 29 24 19 17 17 16 14 10 19 11 9 12 11 10 11
6 6 13 8 9 12 2 3 2 3 5 6 2 6 4 9 3 8 6 7 11 12 13 13 13 19 22 24 28 26 22 22 21 18 16 13 12 12 8 9 8 9 9 11
4 2 5 18 16 8 11 11 7 6 7 3 5 5 4 6 4 10 9 7 9 8 9 12 13 19 20 21 24 25 24 22 19 19 14 13 12 11 11 9 11 8 9 10
6 2 5 8 9 4 5 6 6 5 3 8 6 6 3 4 9 10 15 13 9 8 7 3 10 9 14 17 21 23 23 23 18 14 14 13 14 15 17 14 13 12 12 12
10 1 5 4 10 8 5 3 7 7 2 5 7 5 3 2 11 7 10 13 10 11 8 3 7 9 14 20 24 27 23 21 19 16 13 15 15 17 17 16 14 14 13 14
4 4 1 7 5 8 5 4 7 11 3 3 8 11 4 8 11 9 9 9 12 13 12 7 6 7 14 19 23 26 25 22 21 20 15 13 13 12 15 15 13 13 15 16
2 7 4 6 12 13 8 15 12 10 6 3 2 2 6 4 5 13 15 12 10 10 13 11 11 11 11 18 22 24 26 23 20 18 14 14 13 14 16 17 16 16 16 16
4 2 1 5 6 6 9 8 9 7 7 3 2 4 8 10 3 4 5 6 7 6 6 7 6 5 8 19 24 23 23 20 18 18 16 16 15 16 16 16 17 17 16 17
8 5 1 3 4 5 4 7 15 13 4 8 7 15 17 14 10 15 10 7 7 7 9 10 9 13 11 8 16 19 20 23 21 17 10 10 10 6 4 3 6 13 19 20
6 5 3 2 2 6 5 6 5 6 2 5 6 13 15 19 22 15 18 14 6 5 10 8 15 17 14 10 10 18 17 15 17 16 13 12 12 14 15 17 5 13 14 18
4 5 4 2 5 4 7 10 5 3 5 8 2 1 19 17 11 16 12 10 13 14 14 13 22 19 16 14 10 13 12 15 17 16 14 12 13 17 19 21 31 38 37 21
5 4 3 4 2 3 7 13 3 4 7 5 4 8 8 8 14 13 12 12 12 17 18 16 21 20 17 16 15 14 11 8 7 8 10 11 12 11 16 26 34 46 51 39
2 4 3 2 3 2 13 6 4 6 8 4 2 1 10 12 12 6 7 5 9 11 19 23 19 18 19 20 18 15 12 2 4 7 12 15 14 15 17 26 34 46 50 28
3 3 2 3 4 5 5 2 9 18 15 11 3 5 9 9 3 6 12 9 11 16 19 19 16 16 16 17 15 12 11 7 8 10 14 19 22 20 18 23 17 11 10 22
2 2 2 2 2 1 2 5 10 18 17 14 5 7 9 8 6 7 12 9 10 16 14 11 13 13 14 16 15 13 12 11 11 12 14 14 15 22 25 29 23 10 6 19
3 1 2 2 3 8 2 6 11 13 11 5 5 5 8 10 8 9 7 7 8 8 9 12 12 12 13 13 16 19 17 18 15 14 15 14 12 12 14 13 16 11 6 8
3 5 3 3 6 4 7 7 4 10 11 4 12 11 7 8 7 7 6 8 7 7 11 12 12 11 11 11 12 13 14 16 19 19 20 18 15 13 12 14 11 2 9 7
Wind_Direction
247 164 219 222 199 215 226 255 262 274 280 288 276 281 242 211 186 193 190 193 198 204 201 194 188 176 175 182 187 191 191 195 192 192 197 206 216 221 235 238 242 250 252 245
179 217 236 230 232 229 237 255 270 279 276 204 272 274 253 249 235 197 192 197 198 200 187 184 179 170 174 179 187 190 194 195 196 197 200 208 222 230 241 257 242 249 250 246
223 236 228 218 240 240 247 227 259 255 282 260 292 311 309 296 248 232 203 204 195 186 187 176 178 175 174 181 185 189 194 198 197 200 201 207 224 233 244 249 242 244 232 227
221 249 230 232 239 226 255 248 251 265 293 270 85 268 307 283 304 305 288 187 192 189 180 178 181 177 180 184 184 189 191 197 197 199 200 208 220 223 238 241 232 237 224 226
230 228 243 241 240 234 243 256 250 253 208 54 322 61 265 340 309 294 261 205 182 185 172 181 188 184 181 175 179 187 189 191 190 195 204 208 220 238 249 245 237 221 222 224
211 216 224 237 253 250 254 246 50 59 104 288 250 128 289 232 221 256 263 159 168 172 180 195 177 164 169 170 173 184 178 184 192 197 198 200 208 224 239 250 239 232 227 218
266 245 254 244 260 270 217 60 298 323 340 228 225 59 258 274 209 219 209 177 177 177 187 149 154 158 160 164 166 173 183 185 192 193 188 194 206 213 228 220 227 220 214 214
196 263 232 242 193 230 234 170 179 216 211 257 125 228 268 250 268 212 186 166 156 180 178 159 160 160 158 157 158 163 174 165 174 179 186 196 209 206 256 223 225 214 211 222
208 255 252 246 248 155 268 185 195 137 37 36 207 288 310 305 239 154 160 132 153 149 146 151 153 156 150 148 154 165 166 160 169 177 172 154 158 277 251 210 222 209 214 232
217 319 255 244 257 256 168 200 266 8 158 271 288 283 248 303 245 111 128 144 143 125 130 133 136 136 137 140 149 161 163 162 172 176 174 180 200 203 230 214 206 198 201 208
195 149 266 323 224 230 291 293 93 128 137 181 245 272 244 249 320 106 92 118 137 132 132 138 134 131 127 136 148 159 173 175 180 187 179 179 196 206 198 200 202 195 194 198
311 216 228 231 259 224 212 231 197 195 237 191 156 268 333 289 50 104 89 70 55 66 119 131 133 133 134 140 157 167 177 181 181 178 175 169 175 175 181 187 184 192 196 192
313 327 344 333 275 253 204 181 183 138 6 195 155 246 73 304 92 93 92 87 86 75 55 105 117 126 136 145 168 179 187 191 184 184 182 177 177 182 182 181 184 187 188 195
12 213 124 219 251 258 210 175 223 141 184 214 204 207 196 69 116 68 96 86 95 118 122 225 130 146 154 165 178 187 195 192 186 185 195 192 191 191 191 189 188 185 185 185
90 300 272 254 300 324 252 152 128 338 6 176 267 195 148 181 149 145 141 144 132 133 127 186 158 145 165 170 180 192 199 196 195 196 204 211 205 206 196 196 200 195 191 193
71 269 250 325 344 337 79 32 64 78 347 357 49 75 170 235 281 160 162 160 151 166 161 165 165 166 168 174 181 191 201 197 200 200 208 213 213 211 205 206 207 209 210 208
235 184 333 285 317 303 31 356 69 91 28 241 34 356 73 30 39 17 360 30 59 39 65 72 83 98 157 168 179 191 196 192 200 199 208 210 220 216 213 213 212 215 219 223
169 146 110 261 332 66 213 40 102 113 65 59 70 54 41 29 18 353 30 80 85 85 63 50 60 62 84 145 193 194 192 191 193 192 183 197 211 201 151 61 337 258 230 227
169 132 87 154 129 131 13 345 355 348 336 326 96 80 54 25 34 339 21 18 344 93 95 104 81 68 57 70 183 198 190 178 170 147 163 163 166 162 167 170 167 294 293 273
35 76 123 169 104 91 243 292 307 345 289 216 306 156 105 61 26 300 1 22 10 17 62 76 74 70 57 45 75 127 123 145 147 152 164 171 186 195 193 190 191 231 237 243
344 353 51 10 51 104 291 284 225 146 245 195 208 155 119 121 173 251 332 7 33 35 31 78 68 64 51 52 68 74 92 125 160 175 189 191 199 228 247 245 245 234 235 233
11 354 356 341 68 6 339 347 32 325 335 268 245 282 108 116 153 199 107 57 50 41 38 48 51 44 46 48 56 58 49 64 221 235 242 250 262 276 287 274 267 260 247 227
350 163 235 161 189 227 311 6 43 30 334 297 272 252 142 117 154 209 78 56 49 41 39 56 60 51 44 41 41 31 11 347 304 292 281 268 272 274 291 301 269 267 208 214
203 158 227 56 333 51 58 61 66 51 329 260 240 181 164 150 126 71 72 57 47 37 37 45 53 48 37 38 39 29 3 347 329 317 320 320 303 292 293 302 316 287 176 220
202 90 249 154 145 99 65 102 118 92 27 350 102 83 89 70 63 89 90 92 100 83 64 53 52 51 39 39 32 28 24 20 17 10 1 344 333 324 316 324 286 275 262 267
171 210 189 215 192 199 208 212 204 160 172 94 83 75 65 93 91 80 75 85 85 78 60 54 54 52 39 33 26 17 22 25 22 20 23 16 352 345 334 314 273 253 201 196